DW2685 Weather Reports


time (UTC)temp
C
wind
direction
speed
KPH
gust
KPH
rain 1hr
cm
rain 24hr
cm
rain mn
cm
humidity
%
barometer
mb
20260508165033 19 261 1.6 6.4 0.00 2.44 0.03 51 1018.4
20260508164537 21 71 0.0 6.4 0.00 2.44 0.03 50 1018.4
20260508164026 20 65 1.6 4.8 0.00 2.44 0.03 51 1018.5
20260508163525 20 249 1.6 4.8 0.00 2.44 0.03 54 1018.5
20260508163024 20 219 0.0 11.3 0.00 2.44 0.03 57 1018.6
20260508162524 18 238 3.2 11.3 0.00 2.44 0.03 58 1018.6
20260508162027 20 225 0.0 3.2 0.00 2.44 0.03 52 1018.6
20260508161522 20 93 0.0 3.2 0.00 2.44 0.03 55 1018.7
20260508161021 20 307 0.0 4.8 0.00 2.44 0.03 59 1018.8
20260508160519 19 307 0.0 4.8 0.00 2.44 0.03 58 1018.8
20260508160033 19 15 0.0 1.6 0.03 2.44 0.03 54 1018.9
20260508155516 19 167 0.0 0.0 0.03 2.44 0.03 68 1019.0
20260508155015 19 166 0.0 0.0 0.03 2.44 0.03 61 1019.0
20260508154514 18 162 0.0 3.2 0.03 2.44 0.03 59 1019.0
20260508154015 18 92 0.0 11.3 0.03 2.44 0.03 58 1019.1
20260508153511 18 91 1.6 11.3 0.03 2.44 0.03 58 1019.1
20260508153010 18 194 0.0 6.4 0.03 2.44 0.03 64 1019.1
20260508152509 18 331 0.0 4.8 0.03 2.44 0.03 60 1019.1
20260508152006 17 109 0.0 3.2 0.03 2.44 0.03 66 1019.1
20260508151505 17 107 1.6 4.8 0.03 2.44 0.03 64 1019.0
20260508151006 18 20 0.0 6.4 0.03 2.44 0.03 65 1019.0
20260508150502 17 99 0.0 6.4 0.00 2.41 0.00 72 1019.0
20260508150001 17 71 0.0 0.0 0.00 2.46 0.00 67 1019.0
20260508145600 17 71 0.0 0.0 0.00 2.46 0.00 68 1019.0
20260508145058 17 51 0.0 0.0 0.00 2.46 0.00 60 1019.0
20260508144600 17 313 0.0 0.0 0.00 2.46 0.00 73 1019.0
20260508144055 17 47 0.0 0.0 0.00 2.46 0.00 75 1019.1
20260508143554 17 42 0.0 0.0 0.00 2.46 0.00 76 1019.0
20260508143057 16 37 0.0 0.0 0.00 2.46 0.00 78 1019.0
20260508142551 16 39 0.0 4.8 0.00 2.46 0.00 75 1019.1
20260508142050 16 38 0.0 11.3 0.00 2.46 0.00 70 1019.1
20260508141558 16 85 1.6 11.3 0.00 2.46 0.00 76 1019.2
20260508141048 16 91 0.0 3.2 0.00 2.46 0.00 82 1019.2
20260508140550 15 88 0.0 3.2 0.00 2.46 0.00 77 1019.2
20260508140053 15 61 0.0 3.2 0.00 2.51 0.00 82 1019.2
20260508135543 15 53 0.0 3.2 0.00 2.51 0.00 86 1019.3
20260508135042 15 148 0.0 0.0 0.00 2.51 0.00 86 1019.3
20260508134541 14 148 0.0 0.0 0.00 2.51 0.00 88 1019.1
20260508134039 14 148 0.0 0.0 0.00 2.51 0.00 91 1019.1
20260508133538 13 171 0.0 0.0 0.00 2.51 0.00 94 1019.1
20260508133038 12 171 0.0 0.0 0.00 2.51 0.00 95 1019.0
20260508132538 12 171 0.0 0.0 0.00 2.51 0.00 96 1018.9
20260508132036 12 173 0.0 0.0 0.00 2.51 0.00 97 1019.0
20260508131536 12 173 0.0 3.2 0.00 2.51 0.00 97 1019.0
20260508131035 12 173 0.0 3.2 0.00 2.51 0.00 97 1019.0
20260508130534 12 173 0.0 1.6 0.00 2.51 0.00 97 1019.0
20260508130034 12 173 0.0 1.6 0.00 3.56 0.00 97 1019.0
20260508125533 12 173 0.0 1.6 0.00 3.56 0.00 97 1018.9
20260508125032 12 171 0.0 3.2 0.00 3.56 0.00 98 1018.9
20260508124532 12 138 0.0 3.2 0.00 3.56 0.00 98 1018.8
20260508124031 12 53 0.0 1.6 0.00 3.56 0.00 98 1018.7
20260508123530 11 88 0.0 0.0 0.00 3.56 0.00 98 1018.7
20260508123031 11 88 0.0 0.0 0.00 3.56 0.00 98 1018.6
20260508122527 11 88 0.0 0.0 0.00 3.56 0.00 98 1018.6
20260508122027 11 88 0.0 0.0 0.00 3.56 0.00 98 1018.3
20260508121527 11 87 0.0 0.0 0.00 3.56 0.00 98 1018.3
20260508121027 11 87 0.0 0.0 0.00 3.56 0.00 98 1018.3
20260508120525 10 87 0.0 0.0 0.00 3.56 0.00 98 1018.2
20260508120035 10 88 0.0 0.0 0.00 3.56 0.00 98 1018.2
20260508115525 10 88 0.0 0.0 0.00 3.56 0.00 97 1018.1
20260508115024 10 88 0.0 0.0 0.00 3.56 0.00 97 1018.0
20260508114522 10 88 0.0 0.0 0.00 3.56 0.00 97 1017.9
20260508114022 10 87 0.0 0.0 0.00 3.56 0.00 98 1017.8
20260508113521 10 88 0.0 0.0 0.00 3.56 0.00 98 1017.7
20260508113020 10 88 0.0 0.0 0.00 3.56 0.00 97 1017.6
20260508112518 10 88 0.0 0.0 0.00 3.56 0.00 97 1017.6
20260508112017 10 87 0.0 0.0 0.00 3.56 0.00 97 1017.5
20260508111517 10 87 0.0 0.0 0.00 3.56 0.00 97 1017.5
20260508111017 9 88 0.0 0.0 0.00 3.56 0.00 97 1017.4
20260508110517 9 88 0.0 0.0 0.00 3.56 0.00 97 1017.4
20260508110013 9 88 0.0 0.0 0.00 3.58 0.00 97 1017.2
20260508105514 9 88 0.0 0.0 0.00 3.58 0.00 97 1017.2
20260508105012 9 88 0.0 0.0 0.00 3.58 0.00 97 1017.2
20260508104512 10 88 0.0 0.0 0.00 3.58 0.00 97 1017.2
20260508104009 10 87 0.0 0.0 0.00 3.58 0.00 97 1016.9
20260508103509 10 88 0.0 0.0 0.00 3.58 0.00 97 1016.8
20260508103024 10 88 0.0 0.0 0.00 3.58 0.00 97 1016.7
20260508102507 10 88 0.0 0.0 0.00 3.58 0.00 97 1016.6
20260508102007 10 88 0.0 0.0 0.00 3.58 0.00 97 1016.4
20260508101514 10 88 0.0 0.0 0.00 3.58 0.00 97 1016.3
20260508101005 10 88 0.0 0.0 0.00 3.58 0.00 97 1016.2
20260508100506 10 88 0.0 0.0 0.00 3.58 0.00 97 1016.2
20260508100006 10 88 0.0 0.0 0.00 3.68 0.00 97 1016.1
20260508095504 10 88 0.0 0.0 0.00 3.68 0.00 97 1016.2
20260508095006 10 88 0.0 0.0 0.00 3.68 0.00 97 1016.1
20260508094620 10 88 0.0 0.0 0.00 3.68 0.00 97 1016.1
20260508094001 10 88 0.0 0.0 0.00 3.68 0.00 97 1016.0
20260508093503 10 88 0.0 0.0 0.00 3.68 0.00 97 1016.0
20260508093000 10 88 0.0 0.0 0.00 3.68 0.00 97 1016.0
20260508092500 10 88 0.0 0.0 0.00 3.68 0.00 97 1016.1
20260508092101 10 88 0.0 0.0 0.00 3.68 0.00 96 1016.1
20260508091601 10 88 0.0 0.0 0.00 3.68 0.00 96 1016.1
20260508091059 10 88 0.0 0.0 0.00 3.68 0.00 96 1015.8
20260508090559 10 88 0.0 0.0 0.00 3.68 0.00 96 1015.8
20260508090118 10 88 0.0 0.0 0.00 3.84 0.00 96 1015.8
20260508085557 10 88 0.0 0.0 0.00 3.84 0.00 96 1015.8
20260508085056 10 88 0.0 0.0 0.00 3.84 0.00 96 1015.8
20260508084555 10 88 0.0 0.0 0.00 3.84 0.00 96 1015.8
20260508084054 10 88 0.0 0.0 0.00 3.84 0.00 96 1015.8
20260508083557 10 88 0.0 0.0 0.00 3.84 0.00 96 1015.6
20260508083111 11 88 0.0 0.0 0.00 3.84 0.00 96 1015.7
20260508082553 11 88 0.0 0.0 0.00 3.84 0.00 96 1015.6
20260508082052 11 88 0.0 0.0 0.00 3.84 0.00 96 1015.6
20260508081552 11 88 0.0 0.0 0.00 3.84 0.00 96 1015.5
20260508081050 11 88 0.0 0.0 0.00 3.84 0.00 96 1015.3
20260508080550 11 88 0.0 0.0 0.00 3.84 0.00 96 1015.4
20260508080051 11 88 0.0 0.0 0.00 4.55 0.00 96 1015.3
20260508075549 11 88 0.0 0.0 0.00 4.55 0.00 96 1015.2
20260508075048 11 88 0.0 0.0 0.00 4.55 0.00 96 1015.2
20260508074552 11 88 0.0 0.0 0.00 4.55 0.00 96 1015.3
20260508074050 11 88 0.0 0.0 0.00 4.55 0.00 96 1015.3
20260508073547 11 88 0.0 0.0 0.00 4.55 0.00 96 1015.2
20260508073049 11 88 0.0 0.0 0.00 4.55 0.00 96 1015.2
20260508072546 11 88 0.0 0.0 0.00 4.55 0.00 96 1015.1
20260508072048 11 88 0.0 0.0 0.00 4.55 0.00 96 1015.1
20260508071545 11 88 0.0 0.0 0.00 4.55 0.00 96 1015.0
20260508071044 11 88 0.0 0.0 0.00 4.55 0.00 96 1015.1
20260508070544 12 88 0.0 0.0 0.00 4.55 0.00 96 1015.1
20260508070044 12 88 0.0 0.0 0.00 5.38 0.00 96 1015.0
20260508065543 12 88 0.0 0.0 0.00 5.38 0.00 96 1015.0
20260508065042 12 88 0.0 0.0 0.00 5.38 0.00 96 1015.0
20260508064551 12 88 0.0 0.0 0.00 5.38 0.00 96 1015.0
20260508064040 12 88 0.0 0.0 0.00 5.38 0.00 96 1015.0
20260508063540 12 88 0.0 0.0 0.00 5.38 0.00 97 1015.0
20260508063039 12 88 0.0 0.0 0.00 5.38 0.00 97 1015.0
20260508062539 12 88 0.0 0.0 0.00 5.38 0.00 97 1015.1
20260508062038 12 88 0.0 0.0 0.00 5.38 0.00 97 1015.1
20260508061641 12 88 0.0 0.0 0.00 5.38 0.00 96 1015.2
20260508061038 12 88 0.0 0.0 0.00 5.38 0.00 96 1015.2
20260508060537 12 88 0.0 0.0 0.00 5.38 0.00 96 1015.2
20260508060036 12 88 0.0 0.0 0.00 5.38 0.00 96 1015.2
20260508055536 12 88 0.0 0.0 0.00 5.38 0.00 97 1015.2
20260508055036 12 88 0.0 0.0 0.00 5.38 0.00 97 1015.2
20260508054536 12 88 0.0 0.0 0.00 5.38 0.00 97 1015.2
20260508054035 12 88 0.0 0.0 0.00 5.38 0.00 97 1015.2
20260508053533 12 88 0.0 0.0 0.00 5.38 0.00 96 1015.2
20260508053035 12 88 0.0 0.0 0.00 5.38 0.00 96 1015.2
20260508052533 12 87 0.0 0.0 0.00 5.38 0.00 96 1015.1
20260508052036 12 88 0.0 0.0 0.00 5.38 0.00 96 1015.0
20260508051531 12 87 0.0 0.0 0.00 5.38 0.00 96 1015.1
20260508051032 13 88 0.0 0.0 0.00 5.38 0.00 96 1014.9
20260508050531 13 88 0.0 0.0 0.00 5.38 0.00 96 1014.9
20260508050029 13 87 0.0 0.0 0.00 5.38 0.00 96 1014.9
20260508045528 13 88 0.0 0.0 0.00 5.38 0.00 96 1014.8
20260508045027 13 88 0.0 0.0 0.00 5.38 0.00 96 1014.8
20260508044527 13 87 0.0 0.0 0.00 5.38 0.00 96 1014.7
20260508044041 13 87 0.0 0.0 0.00 5.38 0.00 96 1014.6
20260508043525 13 88 0.0 0.0 0.00 5.38 0.00 96 1014.6
20260508043025 13 88 0.0 0.0 0.00 5.38 0.00 96 1014.5
20260508042525 13 88 0.0 0.0 0.00 5.38 0.00 97 1014.6
20260508042024 13 88 0.0 0.0 0.00 5.38 0.00 97 1014.6
20260508041524 13 88 0.0 0.0 0.00 5.38 0.00 97 1014.5
20260508041023 13 87 0.0 0.0 0.00 5.38 0.00 96 1014.4
20260508040523 13 88 0.0 0.0 0.00 5.38 0.00 96 1014.4
20260508040031 13 88 0.0 0.0 0.00 5.46 5.38 97 1014.4
20260508035522 13 88 0.0 0.0 0.00 5.46 5.38 96 1014.4
20260508035022 13 88 0.0 0.0 0.00 5.46 5.38 96 1014.5
20260508034527 13 88 0.0 0.0 0.00 5.46 5.38 96 1014.4
20260508034019 13 87 0.0 0.0 0.00 5.46 5.38 96 1014.3
20260508033519 13 88 0.0 0.0 0.00 5.46 5.38 96 1014.3
20260508033022 13 88 0.0 0.0 0.00 5.46 5.38 96 1014.3
20260508032519 13 88 0.0 0.0 0.00 5.46 5.38 96 1014.4
20260508032019 13 88 0.0 0.0 0.00 5.46 5.38 96 1014.4
20260508031526 13 88 0.0 0.0 0.00 5.46 5.38 96 1014.3
20260508031017 13 88 0.0 0.0 0.00 5.46 5.38 96 1014.3
20260508030518 13 88 0.0 0.0 0.00 5.46 5.38 96 1014.2
20260508030017 13 88 0.0 0.0 0.00 5.94 5.38 96 1014.2
20260508025517 13 88 0.0 0.0 0.00 5.94 5.38 96 1014.3
20260508025015 13 88 0.0 0.0 0.00 5.94 5.38 96 1014.1
20260508024515 13 87 0.0 0.0 0.00 5.94 5.38 96 1014.2
20260508024014 13 87 0.0 0.0 0.00 5.94 5.38 96 1014.1
20260508023514 13 88 0.0 0.0 0.00 5.94 5.38 96 1013.9
20260508023024 13 88 0.0 0.0 0.00 5.94 5.38 96 1013.8
20260508022512 13 87 0.0 0.0 0.00 5.94 5.38 96 1013.7
20260508022012 13 88 0.0 0.0 0.00 5.94 5.38 96 1013.6
20260508021514 14 88 0.0 0.0 0.00 5.94 5.38 96 1013.5
20260508021015 14 88 0.0 0.0 0.00 5.94 5.38 96 1013.5
20260508020510 14 88 0.0 0.0 0.00 5.94 5.38 96 1013.3
20260508020010 14 87 0.0 0.0 0.00 6.15 5.38 96 1013.2
20260508015509 14 88 0.0 0.0 0.00 6.15 5.38 96 1013.1
20260508015009 14 88 0.0 0.0 0.00 6.15 5.38 96 1013.0
20260508014520 14 88 0.0 0.0 0.00 6.15 5.38 96 1013.1
20260508014008 14 88 0.0 0.0 0.03 6.15 5.38 95 1012.9
20260508013508 14 87 0.0 0.0 0.03 6.15 5.38 96 1012.8
20260508013008 14 75 0.0 0.0 0.03 6.15 5.38 96 1012.7
20260508012508 14 76 0.0 3.2 0.03 6.15 5.38 95 1012.6
20260508012007 14 76 0.0 3.2 0.03 6.15 5.38 95 1012.5
20260508011507 14 76 0.0 1.6 0.03 6.15 5.38 95 1012.4
20260508011006 14 75 0.0 3.2 0.08 6.15 5.38 95 1012.5
20260508010505 15 77 0.0 3.2 0.25 6.15 5.38 95 1012.4
20260508010005 15 74 0.0 0.0 0.46 6.20 5.38 95 1012.3
20260508005508 15 74 0.0 1.6 0.69 6.20 5.38 95 1012.2
20260508005004 15 74 0.0 1.6 0.76 6.20 5.38 95 1012.2
20260508004513 15 74 0.0 3.2 0.79 6.17 5.36 95 1012.3
20260508004003 15 73 0.0 3.2 0.79 6.17 5.36 94 1012.1
20260508003503 15 73 0.0 3.2 0.79 6.17 5.36 94 1012.0
20260508003010 15 73 0.0 3.2 0.89 6.17 5.36 94 1011.8
20260508002502 15 84 0.0 6.4 1.09 6.17 5.36 94 1011.5
20260508002101 15 84 1.6 8.0 1.30 6.17 5.36 94 1011.4
20260508001601 15 57 1.6 8.0 1.52 6.17 5.36 94 1011.3
20260508001059 15 163 0.0 12.9 1.70 6.12 5.31 94 1011.2
20260508000559 15 163 1.6 12.9 1.80 5.97 5.13 93 1011.4
20260508000101 15 57 0.0 6.4 1.88 5.77 4.95 93 1010.9
20260507235600 16 203 1.6 6.4 1.78 5.56 4.75 93 1011.4
20260507235056 16 72 1.6 6.4 1.68 5.46 4.65 94 1010.7
20260507234556 16 186 0.0 4.8 1.60 5.38 4.57 93 1010.0
20260507234057 16 186 1.6 9.7 1.60 5.38 4.57 92 1010.0
20260507233554 16 68 3.2 9.7 1.60 5.38 4.57 92 1009.0
20260507233053 16 65 1.6 9.7 1.52 5.31 4.50 91 1009.2
20260507232552 16 322 1.6 8.0 1.32 5.08 4.29 90 1009.7
20260507232049 17 332 3.2 9.7 1.09 4.88 4.06 89 1008.8
20260507231549 17 20 1.6 14.5 0.86 4.65 3.84 87 1009.0
20260507231048 18 56 1.6 8.0 0.61 4.39 3.58 85 1008.7
20260507230548 20 327 3.2 16.1 0.36 4.14 3.33 83 1008.6
20260507230048 21 112 1.6 16.1 0.10 3.89 3.07 84 1008.9
20260507225547 21 301 1.6 6.4 0.00 3.78 2.97 82 1008.0
20260507225047 22 252 0.0 1.6 0.00 3.78 2.97 84 1007.9
20260507224602 22 252 0.0 1.6 0.00 3.78 2.97 83 1007.6
20260507224047 22 252 0.0 3.2 0.00 3.78 2.97 81 1007.8
20260507223546 22 252 0.0 3.2 0.00 3.78 2.97 81 1007.9
20260507223053 22 251 0.0 6.4 0.00 3.78 2.97 80 1007.8
20260507222545 23 252 1.6 6.4 0.00 3.78 2.97 80 1007.9
20260507222045 23 284 0.0 9.7 0.00 3.78 2.97 78 1007.8
20260507221545 23 259 1.6 9.7 0.00 3.78 2.97 77 1007.5
20260507221045 23 284 0.0 6.4 0.00 3.78 2.97 77 1007.5
20260507220546 23 77 0.0 12.9 0.00 3.78 2.97 77 1007.5
20260507220045 23 331 3.2 12.9 0.00 3.78 2.97 74 1007.4
20260507215548 24 199 0.0 9.7 0.00 3.78 2.97 75 1007.6
20260507215045 24 201 3.2 9.7 0.00 3.78 2.97 74 1007.5
20260507214547 25 200 1.6 8.0 0.00 3.78 2.97 74 1007.4
20260507214046 25 265 0.0 8.0 0.00 3.78 2.97 75 1007.5
20260507213544 24 278 0.0 9.7 0.00 3.78 2.97 75 1007.3
20260507213044 24 279 0.0 9.7 0.00 3.78 2.97 74 1007.4
20260507212543 24 220 1.6 8.0 0.00 3.78 2.97 73 1007.5
20260507212045 25 195 1.6 8.0 0.00 3.78 2.97 73 1007.6
20260507211559 25 225 0.0 8.0 0.00 3.78 2.97 74 1007.7
20260507211042 24 329 1.6 9.7 0.00 3.78 2.97 73 1007.7
20260507210543 25 251 3.2 9.7 0.00 3.78 2.97 72 1007.8
20260507210042 25 229 1.6 14.5 0.00 3.78 2.97 74 1007.6
20260507205542 25 209 4.8 11.3 0.00 3.78 2.97 72 1007.3
20260507205043 25 257 0.0 19.3 0.00 3.78 2.97 73 1007.3
20260507204540 24 288 6.4 19.3 0.00 3.78 2.97 72 1007.4
20260507204043 25 99 1.6 11.3 0.00 3.78 2.97 76 1007.5
20260507203539 25 242 0.0 3.2 0.00 3.78 2.97 74 1007.6
20260507203041 25 230 0.0 3.2 0.00 3.78 2.97 75 1007.6
20260507202537 25 243 0.0 16.1 0.00 3.78 2.97 72 1007.6
20260507202037 25 236 4.8 16.1 0.00 3.78 2.97 74 1007.8
20260507201537 25 311 0.0 8.0 0.00 3.78 2.97 73 1007.8
20260507201040 25 267 3.2 11.3 0.00 3.78 2.97 71 1007.8
20260507200536 25 122 1.6 11.3 0.00 3.78 2.97 70 1007.9
20260507200037 25 235 1.6 14.5 0.00 3.78 2.97 72 1008.0
20260507195534 26 204 0.0 4.8 0.00 3.78 2.97 70 1008.1
20260507195034 26 327 1.6 9.7 0.00 3.78 2.97 71 1007.9
20260507194537 25 215 1.6 9.7 0.00 3.78 2.97 71 1008.1
20260507194030 25 244 1.6 9.7 0.00 3.78 2.97 73 1008.3
20260507193530 25 242 1.6 4.8 0.00 3.78 2.97 74 1008.4
20260507193033 25 236 0.0 4.8 0.00 3.78 2.97 78 1008.4
20260507192526 24 203 1.6 8.0 0.00 3.78 2.97 79 1008.5
20260507192024 24 222 3.2 8.0 0.00 3.78 2.97 76 1008.6
20260507191523 23 199 1.6 4.8 0.00 3.78 2.97 77 1008.5
20260507191022 23 154 1.6 9.7 0.00 3.78 2.97 75 1008.7
20260507190523 23 252 0.0 9.7 0.00 3.78 2.97 76 1008.7
20260507190026 24 215 0.0 6.4 0.00 3.81 2.97 77 1008.6
20260507185520 24 341 1.6 6.4 0.00 3.81 2.97 78 1008.7
20260507185020 23 262 0.0 16.1 0.00 3.81 2.97 79 1008.6
20260507184520 23 232 1.6 16.1 0.00 3.81 2.97 79 1008.5
20260507184018 23 94 1.6 11.3 0.00 3.81 2.97 77 1008.5
20260507183515 23 229 0.0 6.4 0.00 3.81 2.97 81 1008.5
20260507183015 23 229 0.0 3.2 0.00 3.81 2.97 81 1008.5
20260507182514 23 229 0.0 11.3 0.00 3.81 2.97 84 1008.7
20260507182013 23 228 3.2 11.3 0.00 3.81 2.97 79 1008.5
20260507181512 22 189 0.0 8.0 0.00 3.81 2.97 86 1008.5
20260507181013 22 188 0.0 8.0 0.00 3.81 2.97 85 1008.4
20260507180511 22 169 3.2 8.0 0.00 3.81 2.97 83 1008.5
20260507180012 22 279 0.0 4.8 0.00 3.84 2.97 86 1008.7
20260507175509 22 26 1.6 8.0 0.00 3.84 2.97 88 1008.4
20260507175006 21 331 3.2 8.0 0.00 3.84 2.97 90 1008.7
20260507174505 21 159 0.0 6.4 0.00 3.84 2.97 92 1008.9
20260507174003 20 158 1.6 11.3 0.00 3.84 2.97 91 1008.8
20260507173504 20 331 1.6 11.3 0.00 3.84 2.97 93 1009.1
20260507173004 20 183 0.0 3.2 0.00 3.84 2.97 94 1009.3
20260507172502 20 209 0.0 8.0 0.00 3.84 2.97 93 1009.4
20260507172002 20 209 0.0 8.0 0.00 3.84 2.97 93 1009.5
20260507171502 20 241 1.6 9.7 0.00 3.84 2.97 93 1009.4
20260507171001 20 240 3.2 9.7 0.00 3.84 2.97 92 1009.2
20260507170501 20 217 0.0 6.4 0.00 3.84 2.97 93 1009.1
20260507170001 20 219 0.0 0.0 0.00 3.84 2.97 95 1009.2
20260507165501 20 22 0.0 3.2 0.00 3.84 2.97 95 1009.4